Regional Weather Roundup
Issued by NWS Bismarck, ND

Home | Current Version | Previous Version | Text Only | Print | Product List | Glossary On
Versions: 1 2 3 4 5 6 7 8 9 10 11 12 13 14 15 16 17 18 19 20 21 22 23 24 25 26 27 28 29 30 31 32 33 34 35 36 37 38 39 40 41 42 43 44 45 46 47 48 49 50
000
ASUS43 KBIS 210459
RWRBIS

NWR BROADCAST TEXT
NATIONAL WEATHER SERVICE BISMARCK ND
1200 AM CDT SUN SEP 21 2014

NOTE: "FAIR" INDICATES FEW OR NO CLOUDS BELOW 12,000 FEET WITH NO
SIGNIFICANT WEATHER AND/OR OBSTRUCTIONS TO VISIBILITY.


CITY           SKY/WX    TMP DP  RH WIND       PRES   REMARKS
WILLISTON      CLEAR     51  36  56 NW9       30.19R
MINOT          CLEAR     56  40  55 W14       30.10R
MINOT AFB      NOT AVBL
BISMARCK       CLEAR     58  40  51 NW12      30.14R
DICKINSON      NOT AVBL
GARRISON         N/A     53  41  63 NW12      30.13R
HETTINGER ARPT CLEAR     48  35  60 W3        30.23R
JAMESTOWN      NOT AVBL
CARRINGTON     CLOUDY    55  46  71 NW13      30.06R
HARVEY         FAIR      52  45  76 W9        30.08R
HAZEN          FAIR      48  39  71 SW5       30.16R
LINTON         FAIR      48  41  76 NW7       30.13R
OAKES            N/A     57  46  67 W15G21    30.03R
RUGBY          MOCLDY    55  46  71 NW10      30.06R
WATFORD CITY   FAIR      48  36  61 W7        30.17R
$$

CITY           SKY/WX    TMP DP  RH WIND       PRES   REMARKS
GRAND FORKS    MOCLDY    54  50  86 NW8       29.97R
GRAND FORKS AF NOT AVBL
DEVILS LAKE    CLEAR     55  45  67 NW15      30.02R
FARGO          PTCLDY    54  49  83 NW8       29.96R
CAVALIER       FAIR      54  50  87 NW10G17   29.98R
GRAFTON        MOCLDY    54  52  94 NW9       29.97R
GWINNER        CLOUDY    57  45  62 W12       30.02R
LANGDON        FAIR      48  46  93 NW7       30.01R
$$

CITY           SKY/WX    TMP DP  RH WIND       PRES   REMARKS
ABERDEEN       CLEAR     59  41  51 NW14      30.07R
MOBRIDGE       CLEAR     54  44  69 NW6       30.12R
RAPID CITY     CLEAR     55  39  54 N12       30.26R
GLASGOW        CLEAR     51  36  56 N5        30.23R
SIDNEY         CLEAR     52  36  54 W8        30.22S
WOLF POINT     CLEAR     46  37  71 NW3       30.22R
MILES CITY     CLEAR     51  38  60 NW8       30.26R
BAKER          CLEAR     50  36  58 NW6       30.26R
$$

CITY           SKY/WX    TMP DP  RH WIND       PRES   REMARKS
BILLINGS       CLEAR     60  42  51 N5        30.28R
GREAT FALLS    CLEAR     54  41  61 E9        30.26S
$$




USA.gov is the U.S. government's official web portal to all federal, state and local government web resources and services.